User: anonymous   Login
Location: Albany
(35.0000°S, 118.0000°E)
Time: 22:25:10
(UTC-04:00)
Language:

Cosmos 1758 Rocket - Orbit

View from above orbital plane
View from above orbital plane
View from above satellite
View from above satellite

Ground track
Ground track

The orbit data is extracted from the following two-line orbital elements,

1 16792U 86046B   17234.45007263  .00000109  00000-0  10271-4 0  9998
2 16792  82.4846 140.0697 0025783  75.8852  44.1614 14.83141160684700
Epoch (UTC): 22 August 2017 10:48:06
Eccentricity: 0.0025783
inclination: 82.4846°
perigee height: 601 km
apogee height: 637 km
right ascension of ascending node: 140.0697°
argument of perigee: 75.8852°
revolutions per day: 14.83141160
mean anomaly at epoch: 44.1614°
orbit number at epoch: 68470

The dashed part of the orbit path shows where the satellite is in the earth's shadow,  

DLR